Location: *
(28.2408°N, 53.4600°E)
Time: 14:25:08
(UTC+00:00)

YAOGAN 1 - Pass Details

Date: 22 September 2019
Orbit: 619 x 621 km, 98.0° (Epoch: 18 October)

Event Time Altitude Azimuth Distance (km) Brightness Sun altitude
Rises 15:38:03 0° 188° (S) 2,881 6.0 -17.2°
Reaches altitude 10° 15:40:26 10° 199° (SSW) 1,978 5.2 -17.7°
Maximum altitude 15:44:15 31° 262° (W) 1,085 4.5 -18.6°
Drops below altitude 10° 15:48:06 10° 325° (NW) 1,988 5.8 -19.4°
Sets 15:50:30 0° 335° (NNW) 2,897 6.5 -19.9°
